Year,Month,Day,Hour,Minute,Value (Times are PST for temperature in C)
2006,09,27,00,00,12.60
2006,09,27,00,01,12.60
2006,09,27,00,02,12.60
2006,09,27,00,03,12.60
2006,09,27,00,04,12.60
2006,09,27,00,05,12.60
2006,09,27,00,06,12.60
2006,09,27,00,07,12.60
2006,09,27,00,08,12.60
2006,09,27,00,09,12.50
2006,09,27,00,10,12.50
2006,09,27,00,11,12.50
2006,09,27,00,12,12.40
2006,09,27,00,13,12.40
2006,09,27,00,14,12.50
2006,09,27,00,15,12.50
2006,09,27,00,16,12.50
2006,09,27,00,17,12.60
2006,09,27,00,18,12.60
2006,09,27,00,19,12.60
2006,09,27,00,20,12.60
2006,09,27,00,21,12.70
2006,09,27,00,22,12.60
2006,09,27,00,23,12.60
2006,09,27,00,24,12.60
2006,09,27,00,25,12.60
2006,09,27,00,26,12.50
2006,09,27,00,27,12.40
2006,09,27,00,28,12.40
2006,09,27,00,29,12.30
2006,09,27,00,30,12.30
2006,09,27,00,31,12.30
2006,09,27,00,32,12.30
2006,09,27,00,33,12.20
2006,09,27,00,34,12.20
2006,09,27,00,35,12.20
2006,09,27,00,36,12.20
2006,09,27,00,37,12.20
2006,09,27,00,38,12.10
2006,09,27,00,39,12.10
2006,09,27,00,40,12.10
2006,09,27,00,41,12.10
2006,09,27,00,42,12.10
2006,09,27,00,43,12.10
2006,09,27,00,44,12.00
2006,09,27,00,45,12.10
2006,09,27,00,46,12.00
2006,09,27,00,47,12.00
2006,09,27,00,48,12.00
2006,09,27,00,49,12.10
2006,09,27,00,50,12.10
2006,09,27,00,51,12.10
2006,09,27,00,52,12.10
2006,09,27,00,53,12.10
2006,09,27,00,54,12.10
2006,09,27,00,55,12.10
2006,09,27,00,56,12.00
2006,09,27,00,57,12.00
2006,09,27,00,58,12.00
2006,09,27,00,59,12.00
2006,09,27,01,00,12.00
2006,09,27,01,01,12.00
2006,09,27,01,02,11.90
2006,09,27,01,03,11.90
2006,09,27,01,04,11.90
2006,09,27,01,05,11.90
2006,09,27,01,06,11.90
2006,09,27,01,07,11.90
2006,09,27,01,08,11.90
2006,09,27,01,09,11.90
2006,09,27,01,10,11.90
2006,09,27,01,11,11.90
2006,09,27,01,12,11.90
2006,09,27,01,13,11.90
2006,09,27,01,14,11.90
2006,09,27,01,15,11.90
2006,09,27,01,16,11.90
2006,09,27,01,17,11.90
2006,09,27,01,18,11.80
2006,09,27,01,19,11.80
2006,09,27,01,20,11.80
2006,09,27,01,21,11.80
2006,09,27,01,22,11.80
2006,09,27,01,23,11.80
2006,09,27,01,24,11.80
2006,09,27,01,25,11.70
2006,09,27,01,26,11.70
2006,09,27,01,27,11.70
2006,09,27,01,28,11.70
2006,09,27,01,29,11.70
2006,09,27,01,30,11.70
2006,09,27,01,31,11.70
2006,09,27,01,32,11.70
2006,09,27,01,33,11.70
2006,09,27,01,34,11.70
2006,09,27,01,35,11.70
2006,09,27,01,36,11.70
2006,09,27,01,37,11.70
2006,09,27,01,38,11.70
2006,09,27,01,39,11.70
2006,09,27,01,40,11.70
2006,09,27,01,41,11.70
2006,09,27,01,42,11.70
2006,09,27,01,43,11.70
2006,09,27,01,44,11.70
2006,09,27,01,45,11.70
2006,09,27,01,46,11.80
2006,09,27,01,47,11.80
2006,09,27,01,48,11.80
2006,09,27,01,49,11.90
2006,09,27,01,50,12.00
2006,09,27,01,51,12.00
2006,09,27,01,52,12.00
2006,09,27,01,53,12.00
2006,09,27,01,54,11.90
2006,09,27,01,55,11.90
2006,09,27,01,56,12.00
2006,09,27,01,57,11.90
2006,09,27,01,58,11.90
2006,09,27,01,59,11.80
2006,09,27,02,00,11.80
2006,09,27,02,01,11.80
2006,09,27,02,02,11.70
2006,09,27,02,03,11.70
2006,09,27,02,04,11.70
2006,09,27,02,05,11.70
2006,09,27,02,06,11.60
2006,09,27,02,07,11.60
2006,09,27,02,08,11.60
2006,09,27,02,09,11.60
2006,09,27,02,10,11.60
2006,09,27,02,11,11.50
2006,09,27,02,12,11.50
2006,09,27,02,13,11.60
2006,09,27,02,14,11.60
2006,09,27,02,15,11.60
2006,09,27,02,16,11.60
2006,09,27,02,17,11.60
2006,09,27,02,18,11.70
2006,09,27,02,19,11.70
2006,09,27,02,20,11.70
2006,09,27,02,21,11.70
2006,09,27,02,22,11.70
2006,09,27,02,23,11.70
2006,09,27,02,24,11.70
2006,09,27,02,25,11.70
2006,09,27,02,26,11.70
2006,09,27,02,27,11.70
2006,09,27,02,28,11.70
2006,09,27,02,29,11.60
2006,09,27,02,30,11.60
2006,09,27,02,31,11.60
2006,09,27,02,32,11.60
2006,09,27,02,33,11.60
2006,09,27,02,34,11.50
2006,09,27,02,35,11.50
2006,09,27,02,36,11.50
2006,09,27,02,37,11.50
2006,09,27,02,38,11.40
2006,09,27,02,39,11.40
2006,09,27,02,40,11.40
2006,09,27,02,41,11.40
2006,09,27,02,42,11.40
2006,09,27,02,43,11.40
2006,09,27,02,44,11.40
2006,09,27,02,45,11.30
2006,09,27,02,46,11.30
2006,09,27,02,47,11.30
2006,09,27,02,48,11.30
2006,09,27,02,49,11.30
2006,09,27,02,50,11.30
2006,09,27,02,51,11.30
2006,09,27,02,52,11.40
2006,09,27,02,53,11.40
2006,09,27,02,54,11.40
2006,09,27,02,55,11.40
2006,09,27,02,56,11.40
2006,09,27,02,57,11.40
2006,09,27,02,58,11.50
2006,09,27,02,59,11.50
2006,09,27,03,00,11.50
2006,09,27,03,01,11.60
2006,09,27,03,02,11.60
2006,09,27,03,03,11.60
2006,09,27,03,04,11.60
2006,09,27,03,05,11.60
2006,09,27,03,06,11.60
2006,09,27,03,07,11.50
2006,09,27,03,08,11.50
2006,09,27,03,09,11.50
2006,09,27,03,10,11.50
2006,09,27,03,11,11.50
2006,09,27,03,12,11.50
2006,09,27,03,13,11.40
2006,09,27,03,14,11.40
2006,09,27,03,15,11.40
2006,09,27,03,16,11.40
2006,09,27,03,17,11.40
2006,09,27,03,18,11.40
2006,09,27,03,19,11.30
2006,09,27,03,20,11.30
2006,09,27,03,21,11.30
2006,09,27,03,22,11.30
2006,09,27,03,23,11.30
2006,09,27,03,24,11.30
2006,09,27,03,25,11.30
2006,09,27,03,26,11.20
2006,09,27,03,27,11.20
2006,09,27,03,28,11.20
2006,09,27,03,29,11.20
2006,09,27,03,30,11.10
2006,09,27,03,31,11.10
2006,09,27,03,32,11.10
2006,09,27,03,33,11.10
2006,09,27,03,34,11.10
2006,09,27,03,35,11.10
2006,09,27,03,36,11.10
2006,09,27,03,37,11.10
2006,09,27,03,38,11.00
2006,09,27,03,39,11.00
2006,09,27,03,40,11.00
2006,09,27,03,41,11.00
2006,09,27,03,42,11.00
2006,09,27,03,43,11.00
2006,09,27,03,44,11.00
2006,09,27,03,45,10.90
2006,09,27,03,46,10.90
2006,09,27,03,47,10.90
2006,09,27,03,48,10.90
2006,09,27,03,49,10.90
2006,09,27,03,50,10.90
2006,09,27,03,51,10.90
2006,09,27,03,52,10.90
2006,09,27,03,53,11.00
2006,09,27,03,54,11.00
2006,09,27,03,55,11.00
2006,09,27,03,56,11.00
2006,09,27,03,57,11.00
2006,09,27,03,58,11.00
2006,09,27,03,59,11.00
2006,09,27,04,00,11.10
2006,09,27,04,01,11.10
2006,09,27,04,02,11.10
2006,09,27,04,03,11.10
2006,09,27,04,04,11.10
2006,09,27,04,05,11.10
2006,09,27,04,06,11.10
2006,09,27,04,07,11.10
2006,09,27,04,08,11.00
2006,09,27,04,09,11.00
2006,09,27,04,10,11.00
2006,09,27,04,11,10.90
2006,09,27,04,12,10.90
2006,09,27,04,13,10.90
2006,09,27,04,14,10.80
2006,09,27,04,15,10.80
2006,09,27,04,16,10.80
2006,09,27,04,17,10.80
2006,09,27,04,18,10.80
2006,09,27,04,19,10.80
2006,09,27,04,20,10.80
2006,09,27,04,21,10.80
2006,09,27,04,22,10.80
2006,09,27,04,23,10.80
2006,09,27,04,24,10.80
2006,09,27,04,25,10.80
2006,09,27,04,26,10.70
2006,09,27,04,27,10.70
2006,09,27,04,28,10.70
2006,09,27,04,29,10.60
2006,09,27,04,30,10.60
2006,09,27,04,31,10.60
2006,09,27,04,32,10.60
2006,09,27,04,33,10.50
2006,09,27,04,34,10.50
2006,09,27,04,35,10.40
2006,09,27,04,36,10.40
2006,09,27,04,37,10.40
2006,09,27,04,38,10.40
2006,09,27,04,39,10.40
2006,09,27,04,40,10.40
2006,09,27,04,41,10.40
2006,09,27,04,42,10.40
2006,09,27,04,43,10.40
2006,09,27,04,44,10.40
2006,09,27,04,45,10.40
2006,09,27,04,46,10.40
2006,09,27,04,47,10.40
2006,09,27,04,48,10.40
2006,09,27,04,49,10.40
2006,09,27,04,50,10.40
2006,09,27,04,51,10.40
2006,09,27,04,52,10.40
2006,09,27,04,53,10.40
2006,09,27,04,54,10.30
2006,09,27,04,55,10.30
2006,09,27,04,56,10.30
2006,09,27,04,57,10.30
2006,09,27,04,58,10.40
2006,09,27,04,59,10.40
2006,09,27,05,00,10.50
2006,09,27,05,01,10.50
2006,09,27,05,02,10.60
2006,09,27,05,03,10.60
2006,09,27,05,04,10.60
2006,09,27,05,05,10.60
2006,09,27,05,06,10.60
2006,09,27,05,07,10.60
2006,09,27,05,08,10.60
2006,09,27,05,09,10.60
2006,09,27,05,10,10.50
2006,09,27,05,11,10.50
2006,09,27,05,12,10.50
2006,09,27,05,13,10.50
2006,09,27,05,14,10.60
2006,09,27,05,15,10.60
2006,09,27,05,16,10.60
2006,09,27,05,17,10.60
2006,09,27,05,18,10.60
2006,09,27,05,19,10.50
2006,09,27,05,20,10.40
2006,09,27,05,21,10.40
2006,09,27,05,22,10.40
2006,09,27,05,23,10.40
2006,09,27,05,24,10.40
2006,09,27,05,25,10.40
2006,09,27,05,26,10.40
2006,09,27,05,27,10.30
2006,09,27,05,28,10.30
2006,09,27,05,29,10.30
2006,09,27,05,30,10.30
2006,09,27,05,31,10.30
2006,09,27,05,32,10.20
2006,09,27,05,33,10.20
2006,09,27,05,34,10.20
2006,09,27,05,35,10.20
2006,09,27,05,36,10.20
2006,09,27,05,37,10.20
2006,09,27,05,38,10.20
2006,09,27,05,39,10.20
2006,09,27,05,40,10.30
2006,09,27,05,41,10.30
2006,09,27,05,42,10.30
2006,09,27,05,43,10.30
2006,09,27,05,44,10.30
2006,09,27,05,45,10.30
2006,09,27,05,46,10.30
2006,09,27,05,47,10.30
2006,09,27,05,48,10.30
2006,09,27,05,49,10.30
2006,09,27,05,50,10.30
2006,09,27,05,51,10.30
2006,09,27,05,52,10.20
2006,09,27,05,53,10.20
2006,09,27,05,54,10.20
2006,09,27,05,55,10.20
2006,09,27,05,56,10.20
2006,09,27,05,57,10.20
2006,09,27,05,58,10.10
2006,09,27,05,59,10.10
2006,09,27,06,00,10.10
2006,09,27,06,01,10.10
2006,09,27,06,02,10.20
2006,09,27,06,03,10.20
2006,09,27,06,04,10.20
2006,09,27,06,05,10.20
2006,09,27,06,06,10.20
2006,09,27,06,07,10.20
2006,09,27,06,08,10.20
2006,09,27,06,09,10.20
2006,09,27,06,10,10.20
2006,09,27,06,11,10.20
2006,09,27,06,12,10.20
2006,09,27,06,13,10.20
2006,09,27,06,14,10.20
2006,09,27,06,15,10.20
2006,09,27,06,16,10.20
2006,09,27,06,17,10.30
2006,09,27,06,18,10.30
2006,09,27,06,19,10.30
2006,09,27,06,20,10.30
2006,09,27,06,21,10.30
2006,09,27,06,22,10.30
2006,09,27,06,23,10.30
2006,09,27,06,24,10.30
2006,09,27,06,25,10.30
2006,09,27,06,26,10.30
2006,09,27,06,27,10.30
2006,09,27,06,28,10.30
2006,09,27,06,29,10.30
2006,09,27,06,30,10.20
2006,09,27,06,31,10.20
2006,09,27,06,32,10.20
2006,09,27,06,33,10.20
2006,09,27,06,34,10.20
2006,09,27,06,35,10.10
2006,09,27,06,36,10.10
2006,09,27,06,37,10.10
2006,09,27,06,38,10.10
2006,09,27,06,39,10.10
2006,09,27,06,40,10.10
2006,09,27,06,41,10.20
2006,09,27,06,42,10.20
2006,09,27,06,43,10.20
2006,09,27,06,44,10.20
2006,09,27,06,45,10.10
2006,09,27,06,46,10.10
2006,09,27,06,47,10.10
2006,09,27,06,48,10.10
2006,09,27,06,49,10.10
2006,09,27,06,50,10.10
2006,09,27,06,51,10.10
2006,09,27,06,52,10.20
2006,09,27,06,53,10.20
2006,09,27,06,54,10.20
2006,09,27,06,55,10.20
2006,09,27,06,56,10.20
2006,09,27,06,57,10.30
2006,09,27,06,58,10.30
2006,09,27,06,59,10.30
2006,09,27,07,00,10.30
2006,09,27,07,01,10.30
2006,09,27,07,02,10.30
2006,09,27,07,03,10.30
2006,09,27,07,04,10.30
2006,09,27,07,05,10.30
2006,09,27,07,06,10.30
2006,09,27,07,07,10.30
2006,09,27,07,08,10.20
2006,09,27,07,09,10.20
2006,09,27,07,10,10.20
2006,09,27,07,11,10.10
2006,09,27,07,12,10.10
2006,09,27,07,13,10.10
2006,09,27,07,14,10.10
2006,09,27,07,15,10.10
2006,09,27,07,16,10.10
2006,09,27,07,17,10.00
2006,09,27,07,18,10.00
2006,09,27,07,19,10.00
2006,09,27,07,20,10.00
2006,09,27,07,21,10.00
2006,09,27,07,22,10.00
2006,09,27,07,23,10.00
2006,09,27,07,24,10.00
2006,09,27,07,25,10.00
2006,09,27,07,26,10.00
2006,09,27,07,27,10.00
2006,09,27,07,28,10.00
2006,09,27,07,29,10.00
2006,09,27,07,30,10.00
2006,09,27,07,31,10.10
2006,09,27,07,32,10.10
2006,09,27,07,33,10.10
2006,09,27,07,34,10.20
2006,09,27,07,35,10.20
2006,09,27,07,36,10.20
2006,09,27,07,37,10.20
2006,09,27,07,38,10.20
2006,09,27,07,39,10.20
2006,09,27,07,40,10.20
2006,09,27,07,41,10.30
2006,09,27,07,42,10.30
2006,09,27,07,43,10.30
2006,09,27,07,44,10.30
2006,09,27,07,45,10.40
2006,09,27,07,46,10.40
2006,09,27,07,47,10.50
2006,09,27,07,48,10.50
2006,09,27,07,49,10.50
2006,09,27,07,50,10.60
2006,09,27,07,51,10.60
2006,09,27,07,52,10.60
2006,09,27,07,53,10.60
2006,09,27,07,54,10.60
2006,09,27,07,55,10.70
2006,09,27,07,56,10.70
2006,09,27,07,57,10.70
2006,09,27,07,58,10.80
2006,09,27,07,59,10.80
2006,09,27,08,00,10.80
2006,09,27,08,01,10.90
2006,09,27,08,02,10.90
2006,09,27,08,03,11.00
2006,09,27,08,04,11.10
2006,09,27,08,05,11.10
2006,09,27,08,06,11.20
2006,09,27,08,07,11.30
2006,09,27,08,08,11.40
2006,09,27,08,09,11.40
2006,09,27,08,10,11.50
2006,09,27,08,11,11.60
2006,09,27,08,12,11.60
2006,09,27,08,13,11.60
2006,09,27,08,14,11.70
2006,09,27,08,15,11.70
2006,09,27,08,16,11.80
2006,09,27,08,17,11.80
2006,09,27,08,18,11.90
2006,09,27,08,19,11.90
2006,09,27,08,20,12.00
2006,09,27,08,21,12.10
2006,09,27,08,22,12.10
2006,09,27,08,23,12.20
2006,09,27,08,24,12.20
2006,09,27,08,25,12.30
2006,09,27,08,26,12.40
2006,09,27,08,27,12.40
2006,09,27,08,28,12.50
2006,09,27,08,29,12.60
2006,09,27,08,30,12.70
2006,09,27,08,31,12.80
2006,09,27,08,32,12.80
2006,09,27,08,33,12.90
2006,09,27,08,34,13.00
2006,09,27,08,35,13.00
2006,09,27,08,36,13.10
2006,09,27,08,37,13.20
2006,09,27,08,38,13.30
2006,09,27,08,39,13.30
2006,09,27,08,40,13.50
2006,09,27,08,41,13.60
2006,09,27,08,42,13.70
2006,09,27,08,43,13.80
2006,09,27,08,44,13.90
2006,09,27,08,45,14.10
2006,09,27,08,46,14.30
2006,09,27,08,47,14.40
2006,09,27,08,48,14.50
2006,09,27,08,49,14.60
2006,09,27,08,50,14.70
2006,09,27,08,51,14.90
2006,09,27,08,52,15.00
2006,09,27,08,53,15.00
2006,09,27,08,54,15.20
2006,09,27,08,55,15.30
2006,09,27,08,56,15.50
2006,09,27,08,57,15.60
2006,09,27,08,58,15.70
2006,09,27,08,59,15.80
2006,09,27,09,00,15.90
2006,09,27,09,01,16.00
2006,09,27,09,02,16.10
2006,09,27,09,03,16.10
2006,09,27,09,04,16.20
2006,09,27,09,05,16.20
2006,09,27,09,06,16.20
2006,09,27,09,07,16.30
2006,09,27,09,08,16.30
2006,09,27,09,09,16.40
2006,09,27,09,10,16.50
2006,09,27,09,11,16.60
2006,09,27,09,12,16.70
2006,09,27,09,13,16.80
2006,09,27,09,14,17.00
2006,09,27,09,15,17.20
2006,09,27,09,16,17.30
2006,09,27,09,17,17.40
2006,09,27,09,18,17.60
2006,09,27,09,19,17.70
2006,09,27,09,20,17.80
2006,09,27,09,21,17.90
2006,09,27,09,22,17.90
2006,09,27,09,23,18.00
2006,09,27,09,24,18.10
2006,09,27,09,25,18.20
2006,09,27,09,26,18.30
2006,09,27,09,27,18.40
2006,09,27,09,28,18.50
2006,09,27,09,29,18.60
2006,09,27,09,30,18.70
2006,09,27,09,31,18.90
2006,09,27,09,32,19.00
2006,09,27,09,33,19.10
2006,09,27,09,34,19.20
2006,09,27,09,35,19.20
2006,09,27,09,36,19.30
2006,09,27,09,37,19.40
2006,09,27,09,38,19.50
2006,09,27,09,39,19.50
2006,09,27,09,40,19.60
2006,09,27,09,41,19.60
2006,09,27,09,42,19.60
2006,09,27,09,43,19.70
2006,09,27,09,44,19.70
2006,09,27,09,45,19.60
2006,09,27,09,46,19.60
2006,09,27,09,47,19.60
2006,09,27,09,48,19.60
2006,09,27,09,49,19.50
2006,09,27,09,50,19.50
2006,09,27,09,51,19.40
2006,09,27,09,52,19.40
2006,09,27,09,53,19.40
2006,09,27,09,54,19.40
2006,09,27,09,55,19.40
2006,09,27,09,56,19.40
2006,09,27,09,57,19.50
2006,09,27,09,58,19.50
2006,09,27,09,59,19.60
2006,09,27,10,00,19.60
2006,09,27,10,01,19.70
2006,09,27,10,02,19.70
2006,09,27,10,03,19.70
2006,09,27,10,04,19.70
2006,09,27,10,05,19.70
2006,09,27,10,06,19.70
2006,09,27,10,07,19.80
2006,09,27,10,08,19.80
2006,09,27,10,09,19.80
2006,09,27,10,10,19.80
2006,09,27,10,11,19.80
2006,09,27,10,12,19.80
2006,09,27,10,13,19.80
2006,09,27,10,14,19.80
2006,09,27,10,15,19.80
2006,09,27,10,16,19.80
2006,09,27,10,17,19.90
2006,09,27,10,18,19.90
2006,09,27,10,19,20.00
2006,09,27,10,20,20.10
2006,09,27,10,21,20.20
2006,09,27,10,22,20.20
2006,09,27,10,23,20.20
2006,09,27,10,24,20.30
2006,09,27,10,25,20.30
2006,09,27,10,26,20.30
2006,09,27,10,27,20.30
2006,09,27,10,28,20.30
2006,09,27,10,29,20.30
2006,09,27,10,30,20.30
2006,09,27,10,31,20.30
2006,09,27,10,32,20.40
2006,09,27,10,33,20.40
2006,09,27,10,34,20.40
2006,09,27,10,35,20.50
2006,09,27,10,36,20.60
2006,09,27,10,37,20.60
2006,09,27,10,38,20.70
2006,09,27,10,39,20.70
2006,09,27,10,40,20.70
2006,09,27,10,41,20.70
2006,09,27,10,42,20.60
2006,09,27,10,43,20.50
2006,09,27,10,44,20.40
2006,09,27,10,45,20.50
2006,09,27,10,46,20.50
2006,09,27,10,47,20.70
2006,09,27,10,48,20.70
2006,09,27,10,49,20.80
2006,09,27,10,50,20.90
2006,09,27,10,51,21.00
2006,09,27,10,52,21.10
2006,09,27,10,53,21.10
2006,09,27,10,54,21.10
2006,09,27,10,55,21.00
2006,09,27,10,56,21.10
2006,09,27,10,57,21.00
2006,09,27,10,58,21.00
2006,09,27,10,59,20.90
2006,09,27,11,00,20.90
2006,09,27,11,01,20.80
2006,09,27,11,02,20.80
2006,09,27,11,03,20.80
2006,09,27,11,04,20.80
2006,09,27,11,05,20.80
2006,09,27,11,06,20.90
2006,09,27,11,07,20.90
2006,09,27,11,08,21.00
2006,09,27,11,09,21.10
2006,09,27,11,10,21.10
2006,09,27,11,11,21.20
2006,09,27,11,12,21.20
2006,09,27,11,13,21.30
2006,09,27,11,14,21.30
2006,09,27,11,15,21.40
2006,09,27,11,16,21.30
2006,09,27,11,17,21.30
2006,09,27,11,18,21.30
2006,09,27,11,19,21.30
2006,09,27,11,20,21.30
2006,09,27,11,21,21.40
2006,09,27,11,22,21.40
2006,09,27,11,23,21.40
2006,09,27,11,24,21.30
2006,09,27,11,25,21.20
2006,09,27,11,26,21.20
2006,09,27,11,27,21.20
2006,09,27,11,28,21.30
2006,09,27,11,29,21.30
2006,09,27,11,30,21.30
2006,09,27,11,31,21.40
2006,09,27,11,32,21.50
2006,09,27,11,33,21.60
2006,09,27,11,34,21.70
2006,09,27,11,35,21.60
2006,09,27,11,36,21.50
2006,09,27,11,37,21.40
2006,09,27,11,38,21.30
2006,09,27,11,39,21.30
2006,09,27,11,40,21.40
2006,09,27,11,41,21.40
2006,09,27,11,42,21.40
2006,09,27,11,43,21.40
2006,09,27,11,44,21.30
2006,09,27,11,45,21.30
2006,09,27,11,46,21.20
2006,09,27,11,47,21.20
2006,09,27,11,48,21.20
2006,09,27,11,49,21.30
2006,09,27,11,50,21.40
2006,09,27,11,51,21.50
2006,09,27,11,52,21.40
2006,09,27,11,53,21.40
2006,09,27,11,54,21.40
2006,09,27,11,55,21.40
2006,09,27,11,56,21.40
2006,09,27,11,57,21.50
2006,09,27,11,58,21.50
2006,09,27,11,59,21.50
2006,09,27,12,00,21.60
2006,09,27,12,01,21.60
2006,09,27,12,02,21.60
2006,09,27,12,03,21.70
2006,09,27,12,04,21.80
2006,09,27,12,05,21.70
2006,09,27,12,06,21.70
2006,09,27,12,07,21.70
2006,09,27,12,08,21.80
2006,09,27,12,09,21.80
2006,09,27,12,10,21.80
2006,09,27,12,11,21.80
2006,09,27,12,12,21.80
2006,09,27,12,13,21.80
2006,09,27,12,14,21.70
2006,09,27,12,15,21.60
2006,09,27,12,16,21.50
2006,09,27,12,17,21.40
2006,09,27,12,18,21.40
2006,09,27,12,19,21.40
2006,09,27,12,20,21.40
2006,09,27,12,21,21.40
2006,09,27,12,22,21.50
2006,09,27,12,23,21.50
2006,09,27,12,24,21.60
2006,09,27,12,25,21.70
2006,09,27,12,26,21.80
2006,09,27,12,27,21.80
2006,09,27,12,28,21.80
2006,09,27,12,29,21.80
2006,09,27,12,30,21.80
2006,09,27,12,31,21.90
2006,09,27,12,32,21.90
2006,09,27,12,33,21.80
2006,09,27,12,34,21.80
2006,09,27,12,35,21.80
2006,09,27,12,36,21.80
2006,09,27,12,37,21.90
2006,09,27,12,38,21.90
2006,09,27,12,39,22.00
2006,09,27,12,40,22.00
2006,09,27,12,41,22.10
2006,09,27,12,42,22.20
2006,09,27,12,43,22.30
2006,09,27,12,44,22.30
2006,09,27,12,45,22.10
2006,09,27,12,46,22.10
2006,09,27,12,47,22.00
2006,09,27,12,48,22.00
2006,09,27,12,49,22.10
2006,09,27,12,50,22.10
2006,09,27,12,51,22.10
2006,09,27,12,52,22.00
2006,09,27,12,53,21.90
2006,09,27,12,54,22.00
2006,09,27,12,55,22.00
2006,09,27,12,56,22.10
2006,09,27,12,57,22.00
2006,09,27,12,58,22.00
2006,09,27,12,59,22.00
2006,09,27,13,00,22.10
2006,09,27,13,01,22.20
2006,09,27,13,02,22.30
2006,09,27,13,03,22.30
2006,09,27,13,04,22.30
2006,09,27,13,05,22.30
2006,09,27,13,06,22.20
2006,09,27,13,07,22.10
2006,09,27,13,08,22.10
2006,09,27,13,09,22.10
2006,09,27,13,10,22.10
2006,09,27,13,11,22.20
2006,09,27,13,12,22.20
2006,09,27,13,13,22.30
2006,09,27,13,14,22.30
2006,09,27,13,15,22.30
2006,09,27,13,16,22.30
2006,09,27,13,17,22.20
2006,09,27,13,18,22.20
2006,09,27,13,19,22.20
2006,09,27,13,20,22.20
2006,09,27,13,21,22.30
2006,09,27,13,22,22.40
2006,09,27,13,23,22.40
2006,09,27,13,24,22.40
2006,09,27,13,25,22.40
2006,09,27,13,26,22.50
2006,09,27,13,27,22.40
2006,09,27,13,28,22.40
2006,09,27,13,29,22.50
2006,09,27,13,30,22.60
2006,09,27,13,31,22.70
2006,09,27,13,32,22.80
2006,09,27,13,33,22.90
2006,09,27,13,34,23.00
2006,09,27,13,35,23.00
2006,09,27,13,36,23.00
2006,09,27,13,37,23.00
2006,09,27,13,38,23.00
2006,09,27,13,39,23.00
2006,09,27,13,40,23.00
2006,09,27,13,41,23.00
2006,09,27,13,42,22.90
2006,09,27,13,43,22.80
2006,09,27,13,44,22.80
2006,09,27,13,45,22.80
2006,09,27,13,46,22.80
2006,09,27,13,47,22.80
2006,09,27,13,48,22.90
2006,09,27,13,49,22.90
2006,09,27,13,50,22.90
2006,09,27,13,51,23.00
2006,09,27,13,52,23.00
2006,09,27,13,53,22.90
2006,09,27,13,54,22.90
2006,09,27,13,55,22.80
2006,09,27,13,56,22.90
2006,09,27,13,57,22.90
2006,09,27,13,58,23.00
2006,09,27,13,59,23.00
2006,09,27,14,00,23.00
2006,09,27,14,01,22.90
2006,09,27,14,02,22.80
2006,09,27,14,03,22.60
2006,09,27,14,04,22.50
2006,09,27,14,05,22.40
2006,09,27,14,06,22.40
2006,09,27,14,07,22.30
2006,09,27,14,08,22.20
2006,09,27,14,09,22.10
2006,09,27,14,10,22.10
2006,09,27,14,11,22.10
2006,09,27,14,12,22.00
2006,09,27,14,13,22.00
2006,09,27,14,14,22.00
2006,09,27,14,15,22.00
2006,09,27,14,16,22.00
2006,09,27,14,17,21.90
2006,09,27,14,18,21.90
2006,09,27,14,19,21.70
2006,09,27,14,20,21.60
2006,09,27,14,21,21.50
2006,09,27,14,22,21.40
2006,09,27,14,23,21.40
2006,09,27,14,24,21.40
2006,09,27,14,25,21.30
2006,09,27,14,26,21.30
2006,09,27,14,27,21.30
2006,09,27,14,28,21.30
2006,09,27,14,29,21.30
2006,09,27,14,30,21.30
2006,09,27,14,31,21.40
2006,09,27,14,32,21.40
2006,09,27,14,33,21.40
2006,09,27,14,34,21.40
2006,09,27,14,35,21.40
2006,09,27,14,36,21.50
2006,09,27,14,37,21.50
2006,09,27,14,38,21.50
2006,09,27,14,39,21.40
2006,09,27,14,40,21.40
2006,09,27,14,41,21.40
2006,09,27,14,42,21.40
2006,09,27,14,43,21.40
2006,09,27,14,44,21.40
2006,09,27,14,45,21.40
2006,09,27,14,46,21.40
2006,09,27,14,47,21.40
2006,09,27,14,48,21.50
2006,09,27,14,49,21.60
2006,09,27,14,50,21.60
2006,09,27,14,51,21.70
2006,09,27,14,52,21.70
2006,09,27,14,53,21.70
2006,09,27,14,54,21.70
2006,09,27,14,55,21.80
2006,09,27,14,56,21.80
2006,09,27,14,57,21.70
2006,09,27,14,58,21.80
2006,09,27,14,59,21.80
2006,09,27,15,00,21.80
2006,09,27,15,01,21.90
2006,09,27,15,02,21.90
2006,09,27,15,03,22.00
2006,09,27,15,04,22.00
2006,09,27,15,05,22.10
2006,09,27,15,06,22.10
2006,09,27,15,07,22.10
2006,09,27,15,08,22.10
2006,09,27,15,09,22.20
2006,09,27,15,10,22.20
2006,09,27,15,11,22.20
2006,09,27,15,12,22.10
2006,09,27,15,13,22.10
2006,09,27,15,14,22.00
2006,09,27,15,15,22.00
2006,09,27,15,16,22.00
2006,09,27,15,17,22.00
2006,09,27,15,18,22.00
2006,09,27,15,19,22.00
2006,09,27,15,20,22.00
2006,09,27,15,21,21.90
2006,09,27,15,22,21.90
2006,09,27,15,23,21.90
2006,09,27,15,24,21.90
2006,09,27,15,25,21.90
2006,09,27,15,26,21.90
2006,09,27,15,27,21.80
2006,09,27,15,28,21.80
2006,09,27,15,29,21.80
2006,09,27,15,30,21.70
2006,09,27,15,31,21.70
2006,09,27,15,32,21.80
2006,09,27,15,33,21.80
2006,09,27,15,34,21.80
2006,09,27,15,35,21.80
2006,09,27,15,36,21.80
2006,09,27,15,37,21.70
2006,09,27,15,38,21.60
2006,09,27,15,39,21.60
2006,09,27,15,40,21.60
2006,09,27,15,41,21.60
2006,09,27,15,42,21.50
2006,09,27,15,43,21.50
2006,09,27,15,44,21.40
2006,09,27,15,45,21.40
2006,09,27,15,46,21.30
2006,09,27,15,47,21.40
2006,09,27,15,48,21.50
2006,09,27,15,49,21.50
2006,09,27,15,50,21.50
2006,09,27,15,51,21.60
2006,09,27,15,52,21.60
2006,09,27,15,53,21.70
2006,09,27,15,54,21.70
2006,09,27,15,55,21.60
2006,09,27,15,56,21.60
2006,09,27,15,57,21.60
2006,09,27,15,58,21.60
2006,09,27,15,59,21.60
2006,09,27,16,00,21.50
2006,09,27,16,01,21.50
2006,09,27,16,02,21.50
2006,09,27,16,03,21.50
2006,09,27,16,04,21.60
2006,09,27,16,05,21.60
2006,09,27,16,06,21.60
2006,09,27,16,07,21.60
2006,09,27,16,08,21.60
2006,09,27,16,09,21.60
2006,09,27,16,10,21.60
2006,09,27,16,11,21.60
2006,09,27,16,12,21.60
2006,09,27,16,13,21.70
2006,09,27,16,14,21.70
2006,09,27,16,15,21.70
2006,09,27,16,16,21.70
2006,09,27,16,17,21.70
2006,09,27,16,18,21.80
2006,09,27,16,19,21.80
2006,09,27,16,20,21.80
2006,09,27,16,21,21.80
2006,09,27,16,22,21.80
2006,09,27,16,23,21.80
2006,09,27,16,24,21.90
2006,09,27,16,25,21.90
2006,09,27,16,26,21.90
2006,09,27,16,27,22.00
2006,09,27,16,28,22.00
2006,09,27,16,29,22.00
2006,09,27,16,30,22.10
2006,09,27,16,31,22.10
2006,09,27,16,32,22.10
2006,09,27,16,33,22.20
2006,09,27,16,34,22.20
2006,09,27,16,35,22.20
2006,09,27,16,36,22.20
2006,09,27,16,37,22.20
2006,09,27,16,38,22.20
2006,09,27,16,39,22.20
2006,09,27,16,40,22.10
2006,09,27,16,41,22.10
2006,09,27,16,42,22.10
2006,09,27,16,43,22.10
2006,09,27,16,44,22.10
2006,09,27,16,45,22.10
2006,09,27,16,46,22.00
2006,09,27,16,47,22.00
2006,09,27,16,48,22.00
2006,09,27,16,49,22.00
2006,09,27,16,50,22.10
2006,09,27,16,51,22.10
2006,09,27,16,52,22.10
2006,09,27,16,53,22.00
2006,09,27,16,54,22.10
2006,09,27,16,55,22.10
2006,09,27,16,56,22.10
2006,09,27,16,57,22.10
2006,09,27,16,58,22.10
2006,09,27,16,59,22.10
2006,09,27,17,00,22.10
2006,09,27,17,01,22.00
2006,09,27,17,02,22.00
2006,09,27,17,03,22.00
2006,09,27,17,04,22.00
2006,09,27,17,05,22.00
2006,09,27,17,06,22.10
2006,09,27,17,07,22.10
2006,09,27,17,08,22.10
2006,09,27,17,09,22.10
2006,09,27,17,10,22.00
2006,09,27,17,11,22.00
2006,09,27,17,12,22.00
2006,09,27,17,13,21.90
2006,09,27,17,14,21.90
2006,09,27,17,15,21.90
2006,09,27,17,16,21.90
2006,09,27,17,17,21.90
2006,09,27,17,18,21.90
2006,09,27,17,19,21.90